Station Name: CLOOSH (FOR.STN.)
Station Height: 101 M 
Latitude:53.360  ,Longitude: -9.339


date: -   09 to 09 utc
rain: -   Precipitation Amount (mm)
maxt: -   Maximum Temperature (C)
mint: -   Minimum Temperature (C)
gmin: -   09utc Grass Minimum Temperature (C)
soil: -   10cm Soil Temperature (C)
ind:  -	  Indicator

date,ind,rain,ind,maxt,ind,mint,gmin,soil
01-jul-1963,0,20.400,0,18.6,0,11.3,10.2, 
02-jul-1963,0,6.700,0,19.7,0,11.1,8.3, 
03-jul-1963,0,7.700,0,19.7,0,10.5, , 
04-jul-1963,0,0.100,0,21.0,0,10.4,8.3, 
05-jul-1963,0,17.300,0,15.8,0,11.3,9.8, 
06-jul-1963,0,1.200,0,15.4,0,10.2,9.3, 
07-jul-1963,4,0.000,0,18.2,0,11.0,7.8, 
08-jul-1963,0,0.100,2,15.5,0,7.5,6.6, 
09-jul-1963,0,1.800,0,16.3,0,10.5,5.6, 
10-jul-1963,4,0.000,0,15.5,0,10.2,5.5, 
11-jul-1963,4,0.000,0,17.7,0,10.0,8.2, 
12-jul-1963,0,1.300,0,21.3,0,9.3,4.3, 
13-jul-1963,0,9.100,0,20.5,0,6.6, , 
14-jul-1963,0,1.700,0,24.7,0,11.0,9.1, 
15-jul-1963,0,3.100,0,18.8,0,11.9,7.3, 
16-jul-1963,0,1.500,0,25.8,0,10.2,4.4, 
17-jul-1963,0,0.100,0,20.0,0,11.1,7.5, 
18-jul-1963,0,2.700,0,18.2,0,10.5,10.5, 
19-jul-1963,0,0.100,0,16.3,0,12.5,10.4, 
20-jul-1963,0,1.700,0,17.3,0,7.5,8.3, 
21-jul-1963,0,1.300,0,19.1,0,14.1,14.3, 
22-jul-1963,0,6.900,0,22.2,0,11.3,11.3, 
23-jul-1963,0,15.700,0,17.2,0,11.8,11.1, 
24-jul-1963,0,0.100,0,15.5,0,10.8,10.0, 
25-jul-1963,4,0.000,0,21.6,0,7.5,1.1, 
26-jul-1963,4,0.000,0,15.8,0,8.0,4.3, 
27-jul-1963,4,0.000,0,18.6,0,10.3,7.2, 
28-jul-1963,4,0.000,0,20.2,0,8.6, , 
29-jul-1963,4,0.000,0,20.8,0,9.7,3.8, 
30-jul-1963,0,8.100,0,22.5,0,11.2,8.6, 
31-jul-1963,0,6.600,0,21.9,0,11.6,11.6, 
01-aug-1963,4,0.000,0,17.1,0,10.2,10.2, 
02-aug-1963,4,0.000,0,17.7,0,12.5,11.6, 
03-aug-1963,0,0.100,0,21.7,0,12.5,11.3, 
04-aug-1963,4,0.000,0,16.3,0,11.0,8.0, 
05-aug-1963,4,0.000,0,16.9,0,11.7,11.0, 
06-aug-1963,0,20.200,0,19.7,0,10.5,10.0, 
07-aug-1963,4,0.000,0,17.5,0,13.0,13.6, 
08-aug-1963,4,0.000,0,16.6,0,10.0,7.0, 
09-aug-1963,0,11.400,0,18.6,0,9.3,6.2, 
10-aug-1963,0,14.700,0,15.5,0,12.5,12.7, 
11-aug-1963,4,0.000,0,19.7,0,10.3,8.5, 
12-aug-1963,0,1.100,0,17.7,0,10.4,8.6, 
13-aug-1963,4,0.000,0,15.3,0,10.6,9.9, 
14-aug-1963,4,0.000,0,16.1,0,7.5,1.0, 
15-aug-1963,0,1.300,0,14.4,0,6.3,2.2, 
16-aug-1963,0,1.300,0,17.7,0,9.1,7.3, 
17-aug-1963,4,0.000,0,15.8,0,9.7,6.5, 
18-aug-1963,0,0.100,0,14.8,0,7.5,4.2, 
19-aug-1963,0,2.600,0,16.1,0,10.5,9.7, 
20-aug-1963,0,5.700,0,15.2,0,8.3,4.1, 
21-aug-1963,0,4.700,0,16.2,0,8.3,3.8, 
22-aug-1963,0,3.600,0,15.7,0,11.2,10.0, 
23-aug-1963,0,11.600,0,14.3,0,8.8,6.6, 
24-aug-1963,0,2.100,0,16.0,0,11.0,9.5, 
25-aug-1963,0,2.800,0,16.6,0,11.6,9.4, 
26-aug-1963,0,1.600,0,15.7,0,11.1,10.0, 
27-aug-1963,4,0.000,0,15.0,0,10.0,9.9, 
28-aug-1963,0,6.300,2,12.5,0,9.8,-0.2, 
29-aug-1963,0,6.100,0,16.6,0,9.7,9.5, 
30-aug-1963,0,17.100,0,14.3,0,11.0,10.2, 
31-aug-1963,4,0.000,4, ,0,10.9,9.8, 
01-sep-1963,4,0.000,0,17.1,0,11.6,9.7, 
02-sep-1963,4,0.000,0,16.3,0,10.1,7.5, 
03-sep-1963,0,3.500,0,13.8,0,8.0,5.4, 
04-sep-1963,0,0.100,0,15.8,0,8.6,7.3, 
05-sep-1963,0,0.100,0,15.5,0,9.0,4.1, 
06-sep-1963,0,4.200,0,13.8,0,8.5,6.1, 
07-sep-1963,0,6.700,0,14.3,0,10.6,10.2, 
08-sep-1963,0,9.300,0,13.0,0,6.1,0.6, 
09-sep-1963,4,0.000,0,14.0,0,7.5,6.3, 
10-sep-1963,4,0.000,4, ,0,7.5,3.3, 
11-sep-1963,4,0.000,4, ,0,5.8,2.7, 
12-sep-1963,0,0.100,0,20.0,0,4.4,-1.1, 
13-sep-1963,4,0.000,0,15.6,0,10.5,6.3, 
14-sep-1963,4,0.000,0,15.5,0,10.5,8.3, 
15-sep-1963,0,2.400,2,15.5,0,8.8,5.1, 
16-sep-1963,4,0.000,0,17.9,0,11.0,9.2, 
17-sep-1963,0,7.900,0,13.6,0,9.1,3.3, 
18-sep-1963,4,0.000,0,15.1,0,6.1,3.3, 
19-sep-1963,0,0.100,0,16.2,0,9.4,6.0, 
20-sep-1963,4,0.000,0,16.3,0,12.0,10.2, 
21-sep-1963,4,0.000,0,15.8,0,12.3,11.6, 
22-sep-1963,4,0.000,0,14.9,0,11.9,10.7, 
23-sep-1963,0,5.800,0,16.3,0,11.3,9.3, 
24-sep-1963,0,4.200,0,12.6,0,8.3,6.1, 
25-sep-1963,0,22.200,0,14.7,0,3.8,-1.1, 
26-sep-1963,0,0.100,0,13.8,0,8.3,8.0, 
27-sep-1963,4,0.000,0,13.1,0,7.1,3.6, 
28-sep-1963,0,3.200,0,14.4,0,7.3,2.2, 
29-sep-1963,0,0.100,0,13.7,0,11.2,10.5, 
30-sep-1963,0,0.100,4, ,0,9.3,5.6, 
01-oct-1963,0,4.700,0,11.6,0,8.3,6.0, 
02-oct-1963,0,4.200,0,13.3,0,7.7,5.4, 
03-oct-1963,0,4.600,0,12.5,0,9.3,7.5, 
04-oct-1963,0,16.600,0,12.1,0,4.8,-1.5, 
05-oct-1963,0,3.400,0,11.3,0,7.6,5.8, 
06-oct-1963,0,3.800,0,13.7,0,6.6,2.0, 
07-oct-1963,0,6.200,0,14.9,0,9.1,7.1, 
08-oct-1963,4,0.000,0,13.6,0,10.2,9.8, 
09-oct-1963,4,0.000,0,13.7,0,6.1,-0.2, 
10-oct-1963,4,0.000,0,13.6,0,10.5, , 
11-oct-1963,4,0.000,0,14.7,0,10.1,8.5, 
12-oct-1963,0,0.100,0,13.6,0,10.2,8.0, 
13-oct-1963,0,3.900,0,12.7,0,7.0,3.8, 
14-oct-1963,0,7.700,2,15.9,0,4.7,1.3, 
15-oct-1963,0,4.200,0,14.9,0,7.2, , 
16-oct-1963,0,1.100,0,12.5,0,6.1,1.1, 
17-oct-1963,0,1.900,2,15.0,0,8.3, , 
18-oct-1963,0,2.300,0,15.0,0,9.9,7.8, 
19-oct-1963,0,4.900,0,13.1,0,11.6,9.7, 
20-oct-1963,0,6.100,0,14.3,0,7.7,5.2, 
21-oct-1963,0,11.600,0,12.1,0,9.3, , 
22-oct-1963,0,8.600,0,13.6,0,2.8,-2.1, 
23-oct-1963,4,0.000,0,14.2,0,6.3, , 
24-oct-1963,0,0.100,0,15.3,0,10.2,8.3, 
25-oct-1963,0,0.100,0,15.0,0,9.9,4.4, 
26-oct-1963,4,0.000,0,13.8,0,7.8,5.2, 
27-oct-1963,0,4.400,0,13.5,0,9.5,9.2, 
28-oct-1963,0,2.200,0,15.5,0,11.1,9.2, 
29-oct-1963,0,8.700,0,13.5,0,9.6,2.3, 
30-oct-1963,0,21.900,0,11.6,0,10.0,9.3, 
31-oct-1963,4,0.000,4, ,0,6.1,1.0, 
01-nov-1963,4,0.000,0,12.7,0,7.5,4.8, 
02-nov-1963,0,0.100,0,10.8,0,5.0,0.8, 
03-nov-1963,4,0.000,0,12.8,0,6.2,5.6, 
04-nov-1963,0,3.700,0,10.5,0,7.7,6.7, 
05-nov-1963,4,0.000,0,11.9,0,7.7,7.0, 
06-nov-1963,4,0.000,0,15.0,0,3.8,-0.1, 
07-nov-1963,0,1.900,0,11.3,0,4.4,0.0, 
08-nov-1963,0,1.800,0,10.2,0,3.6,-0.6, 
09-nov-1963,0,18.300,0,10.8,0,2.6,-2.2, 
10-nov-1963,0,15.000,0,12.1,0,4.4,1.1, 
11-nov-1963,0,5.400,0,11.1,0,8.8,8.7, 
12-nov-1963,0,0.100,0,8.2,0,6.3,4.7, 
13-nov-1963,0,6.100,0,7.7,0,0.2,-4.5, 
14-nov-1963,0,4.500,0,8.2,0,2.2,-1.7, 
15-nov-1963,0,4.300,0,7.0,0,2.7,-1.2, 
16-nov-1963,0,1.600,0,7.8,0,2.1,-1.5, 
17-nov-1963,0,22.100,0,11.1,0,2.2,-1.1, 
18-nov-1963,0,9.100,0,10.5,0,2.7, , 
19-nov-1963,4,0.000,0,10.8,0,7.5,5.5, 
20-nov-1963,0,10.300,0,11.6,0,0.8,-3.8, 
21-nov-1963,0,1.700,0,11.6,2,1.2,-3.0, 
22-nov-1963,0,1.500,2,11.5,0,2.1,-3.3, 
23-nov-1963,0,18.600,0,11.5,0,3.0,-1.1, 
24-nov-1963,0,10.500,0,10.3,0,9.4,8.8, 
25-nov-1963,0,3.200,0,9.7,0,4.6,2.3, 
26-nov-1963,0,0.100,0,10.7,0,6.5,3.8, 
27-nov-1963,0,6.600,0,10.0,0,4.5,0.0, 
28-nov-1963,4,0.000,0,8.3,0,3.6,-0.8, 
29-nov-1963,4,0.000,0,7.7,1,-0.5,-5.5, 
30-nov-1963,4,0.000,0,6.5,2,1.0,-4.0, 
01-dec-1963,0,0.000,0,8.2,0,2.5,-1.1, 
02-dec-1963,0,0.400,0,8.3,0,2.7,-2.1, 
03-dec-1963,0,0.200,0,7.7,0,6.1,4.3, 
04-dec-1963,0,0.000,0,7.5,0,5.8,3.3, 
05-dec-1963,0,0.000,0,6.3,0,4.4,2.7, 
06-dec-1963,0,0.000,0,5.5,0,4.1,3.1, 
07-dec-1963,0,0.000,0,4.4,0,2.7,1.9, 
08-dec-1963,0,0.000,0,5.0,0,2.8,2.7, 
09-dec-1963,0,0.000,0,6.2,1,-1.3,-6.6, 
10-dec-1963,0,22.400,0,8.6,1,-1.6,-7.6, 
11-dec-1963,0,5.700,0,7.1,0,2.3,1.5, 
12-dec-1963,0,0.100,0,6.6,0,4.3,4.1, 
13-dec-1963,0,0.000,0,5.6,0,1.6,-1.5, 
14-dec-1963,0,0.000,0,3.2,0,0.0,-2.2, 
15-dec-1963,0,0.000,0,3.8,1,-1.1,-3.8, 
16-dec-1963,0,0.000,0,4.2,0,0.0,-2.1, 
17-dec-1963,0,0.000,0,3.6,0,1.8,0.8, 
18-dec-1963,0,0.000,0,1.7,1,-1.7,-3.7, 
19-dec-1963,0,0.000,0,0.6,1,-3.5,-6.7, 
20-dec-1963,0,0.000,0,4.0,1,-3.3,-7.9, 
21-dec-1963,0,0.000,0,6.3,1,-1.7,-9.0, 
22-dec-1963,0,0.000,0,8.1,1,-2.2,-8.6, 
23-dec-1963,0,0.000,0,7.3,0,2.7,-0.5, 
24-dec-1963,1,4.100,0,8.8,0,4.4,2.7, 
25-dec-1963,1,0.800,0,7.2,0,4.1,0.0, 
26-dec-1963,0,0.500,0,9.0,0,0.8,-5.7, 
27-dec-1963,0,0.900,0,10.8,0,1.0,-3.8, 
28-dec-1963,0,8.200,0,10.8,0,6.5,3.1, 
29-dec-1963,0,6.400,2,10.1,0,5.5,3.5, 
30-dec-1963,0,3.300,0,11.0,0,4.3,0.0, 
31-dec-1963,0,1.100,0,8.8,0,5.5,3.2, 
01-jan-1964,0,3.100,0,10.8,0,3.8,-0.5, 
02-jan-1964,0,2.200,0,11.3,0,7.3,6.5, 
03-jan-1964,0,10.600,0,9.1,0,8.2,8.1, 
04-jan-1964,0,0.200,0,7.2,0,5.0,4.5, 
05-jan-1964,0,2.800,0,8.5,0,2.8,0.0, 
06-jan-1964,0,0.100,0,9.2,0,4.1,2.7, 
07-jan-1964,4,0.000,0,8.2,0,5.0,0.3, 
08-jan-1964,4,0.000,0,7.0,0,3.2,-1.2, 
09-jan-1964,4,0.000,0,8.0,0,4.3,-0.4, 
10-jan-1964,4,0.000,0,6.8,0,5.0,3.1, 
11-jan-1964,4,0.000,0,4.3,0,2.8,-1.5, 
12-jan-1964,4,0.000,0,5.9,1,-1.7,-7.8, 
13-jan-1964,0,0.300,0,6.3,0,1.4,0.5, 
14-jan-1964,0,0.400,0,4.9,1,-1.1,-1.7, 
15-jan-1964,4,0.000,0,6.5,1,-1.3,-2.0, 
16-jan-1964,0,3.300,0,5.6,0,3.9,2.7, 
17-jan-1964,0,5.700,0,7.1,0,3.2,2.7, 
18-jan-1964,0,2.100,0,9.8,0,4.6,4.4, 
19-jan-1964,0,0.200,0,9.8,0,4.8,0.5, 
20-jan-1964,4,0.000,0,9.2,0,2.6,-2.8, 
21-jan-1964,4,0.000,0,7.3,0,0.0,-4.5, 
22-jan-1964,0,0.100,0,7.3,0,1.6,-2.2, 
23-jan-1964,0,3.600,0,9.6,0,2.7,-2.1, 
24-jan-1964,0,0.100,0,6.7,0,1.0,-3.7, 
25-jan-1964,4,0.000,0,6.3,0,1.7,-1.9, 
26-jan-1964,0,1.600,0,8.4,0,0.5,-4.5, 
27-jan-1964,0,4.800,0,9.0,0,2.2,-3.3, 
28-jan-1964,0,0.700,0,9.8,0,5.0,2.3, 
29-jan-1964,0,5.500,0,9.6,0,6.7,3.9, 
30-jan-1964,0,15.500,0,10.1,0,2.3,0.6, 
31-jan-1964,0,0.600,0,10.3,0,2.4,1.2, 
01-feb-1964,0,0.700,0,10.9,0,8.0,6.5, 
02-feb-1964,0,0.900,0,10.1,0,8.1,7.2, 
03-feb-1964,0,0.900,0,8.5,0,3.9,0.1, 
04-feb-1964,0,1.200,0,8.2,0,3.9,-0.7, 
05-feb-1964,0,0.000,0,4.7,1,-0.4,-2.7, 
06-feb-1964,0,0.000,0,4.8,1,-3.6,-9.3, 
07-feb-1964,0,0.000,0,5.9,1,-3.9,-9.4, 
08-feb-1964,0,0.000,0,5.3,1,-2.6,-8.6, 
09-feb-1964,0,0.000,0,5.7,0,1.2,-8.6, 
10-feb-1964,0,0.100,0,7.6,0,3.3,1.6, 
11-feb-1964,0,0.100,0,8.7,0,4.6,3.0, 
12-feb-1964,0,1.400,0,7.5,0,4.4,1.7, 
13-feb-1964,0,4.600,0,7.3,0,5.0,3.3, 
14-feb-1964,0,3.300,0,9.5,0,3.1,2.6, 
15-feb-1964,0,0.500,0,10.3,0,3.3,0.8, 
16-feb-1964,0,0.400,0,5.7,0,3.0,-0.7, 
17-feb-1964,0,0.000,0,5.4,0,0.6,-1.3, 
18-feb-1964,0,0.100,0,2.8,1,-1.3,-3.5, 
19-feb-1964,0,0.000,0,2.9,1,-0.2,-1.3, 
20-feb-1964,0,0.000,0,3.7,0,0.5,-0.7, 
21-feb-1964,0,12.600,0,7.6,0,1.0,0.4, 
22-feb-1964,0,7.500,0,9.7,0,3.0,2.5, 
23-feb-1964,0,4.000,0,12.0,0,7.1,3.8, 
24-feb-1964,0,10.500,0,9.7,0,3.5,-2.6, 
25-feb-1964,0,0.300,0,11.7,0,6.2,4.5, 
26-feb-1964,0,2.300,0,9.8,0,5.8,-0.9, 
27-feb-1964,0,1.400,0,10.4,0,7.8,5.6, 
28-feb-1964,0,0.100,0,9.1,0,4.7,2.1, 
29-feb-1964,0,0.000,0,9.3,0,1.6,-4.8, 
01-mar-1964,4,0.000,0,10.8,0,2.8,-3.1, 
02-mar-1964,4,0.000,0,10.2,0,4.5,2.0, 
03-mar-1964,4,0.000,0,5.8,0,2.7,-0.7, 
04-mar-1964,4,0.000,0,6.2,1,-2.1,-6.5, 
05-mar-1964,4,0.000,0,5.5,0,0.8,-3.3, 
06-mar-1964,4,0.000,0,7.1,0,0.0,-3.2, 
07-mar-1964,4,0.000,0,7.2,1,-0.7,-3.5, 
08-mar-1964,0,0.600,0,7.7,0,0.8,-2.0, 
09-mar-1964,0,2.300,0,7.1,0,1.6,1.4, 
10-mar-1964,0,0.500,0,8.6,0,4.1,3.0, 
11-mar-1964,0,0.900,0,10.1,0,0.4,-2.7, 
12-mar-1964,0,1.100,0,7.1,0,3.3,1.7, 
13-mar-1964,0,6.300,0,12.5,0,3.6,1.2, 
14-mar-1964,0,1.200,0,11.0,0,6.3,4.0, 
15-mar-1964,4,0.000,0,10.0,0,4.3,0.0, 
16-mar-1964,0,10.500,0,9.0,0,0.3,-4.5, 
17-mar-1964,0,6.100,0,10.1,0,1.9,1.7, 
18-mar-1964,0,15.800,0,8.1,0,5.8,5.7, 
19-mar-1964,0,8.700,0,10.5,0,3.9,3.9, 
20-mar-1964,0,0.300,0,10.6,0,4.2,-1.0, 
21-mar-1964,0,2.400,0,12.0,0,5.0,-1.3, 
22-mar-1964,0,0.400,0,11.2,0,5.4,0.2, 
23-mar-1964,0,12.500,0,10.3,0,5.5,-0.2, 
24-mar-1964,0,4.400,0,12.6,0,7.5,7.0, 
25-mar-1964,0,0.200,0,9.5,0,2.0,-0.8, 
26-mar-1964,0,6.600,0,9.9,0,0.0,-5.1, 
27-mar-1964,0,8.300,0,9.3,0,4.7, , 
28-mar-1964,0,1.000,0,10.0,0,7.2,7.1, 
29-mar-1964,0,0.100,0,7.4,0,4.8,2.6, 
30-mar-1964,0,1.100,0,8.8,0,3.7,2.8, 
31-mar-1964,4,0.000,0,8.6,0,3.4,1.7, 
01-apr-1964,0,0.000,0,6.7,0,3.2,2.7, 
02-apr-1964,0,0.000,0,8.7,0,0.5,-1.5, 
03-apr-1964,0,0.000,0,8.2,0,3.0,-1.0, 
04-apr-1964,0,0.000,0,10.2,0,1.7,-2.4, 
05-apr-1964,0,5.600,0,10.7,0,0.1,-4.0, 
06-apr-1964,0,0.800,0,11.5,0,4.6,-0.2, 
07-apr-1964,0,1.100,0,11.4,0,1.7,-2.9, 
08-apr-1964,0,0.400,0,12.5,0,8.3,7.8, 
09-apr-1964,0,0.600,0,10.9,0,7.2,6.2, 
10-apr-1964,0,0.300,0,11.2,0,0.0,-3.4, 
11-apr-1964,0,5.900,0,11.8,0,7.0,4.1, 
12-apr-1964,0,0.600,0,11.7,0,8.3,7.2, 
13-apr-1964,0,6.600,0,10.3,0,2.6, , 
14-apr-1964,0,2.300,0,11.6,0,3.7,1.8, 
15-apr-1964,0,0.700,0,12.0,0,5.6,2.1, 
16-apr-1964,0,3.500,0,12.2,0,2.2,-1.0, 
17-apr-1964,0,6.100,0,13.1,0,4.2,1.7, 
18-apr-1964,0,5.600,0,11.4,0,5.0,1.5, 
19-apr-1964,0,1.000,0,14.1,0,3.3,0.0, 
20-apr-1964,0,0.900,0,12.0,0,5.3,4.0, 
21-apr-1964,0,1.400,0,11.2,0,2.8,-1.7, 
22-apr-1964,0,0.300,0,12.0,0,3.5,-1.1, 
23-apr-1964,0,0.000,0,13.2,0,5.1,-0.5, 
24-apr-1964,0,7.800,0,12.7,0,6.1,-0.3, 
25-apr-1964,0,0.000,0,15.0,0,8.0, , 
26-apr-1964,0,2.100,0,14.5,0,9.1,8.8, 
27-apr-1964,0,3.200,0,12.0,0,9.8,9.2, 
28-apr-1964,0,2.600,0,13.0,0,8.5,8.0, 
29-apr-1964,0,5.500,0,13.2,0,6.6,4.5, 
30-apr-1964,0,1.000,0,12.1,0,6.9,4.2, 
01-may-1964,0,5.600,0,12.1,0,4.7,-0.6, 
02-may-1964,0,7.300,0,13.6,0,7.3,7.2, 
03-may-1964,0,6.700,0,12.3,0,6.7,4.9, 
04-may-1964,0,3.500,0,11.5,0,6.5,4.9, 
05-may-1964,0,0.600,0,12.8,0,7.2,5.3, 
06-may-1964,0,8.700,0,14.6,0,9.2,8.3, 
07-may-1964,0,4.800,0,13.6,0,9.3,9.1, 
08-may-1964,0,0.000,0,12.7,0,5.7,4.5, 
09-may-1964,0,4.500,0,12.8,0,8.4,7.3, 
10-may-1964,0,16.900,2,12.5,0,4.5,0.5, 
11-may-1964,0,5.400,0,13.3,0,7.3,8.3, 
12-may-1964,0,0.000,0,16.5,0,8.8, , 
13-may-1964,0,0.600,0,14.0,0,4.4,-1.1, 
14-may-1964,0,0.000,0,13.7,0,4.7,-0.5, 
15-may-1964,0,0.000,0,15.0,0,4.6,-0.7, 
16-may-1964,0,0.000,0,18.8,0,10.1,9.3, 
17-may-1964,0,8.400,0,21.2,0,8.2,4.7, 
18-may-1964,0,0.000,0,22.1,0,5.3,4.0, 
19-may-1964,0,1.900,0,20.7,0,6.8,3.9, 
20-may-1964,0,3.500,0,19.2,0,8.3,3.2, 
21-may-1964,0,10.900,0,13.9,0,10.0,10.7, 
22-may-1964,0,0.900,0,15.5,0,7.7,8.2, 
23-may-1964,0,0.000,0,17.9,0,7.8,7.1, 
24-may-1964,0,0.000,0,16.2,0,9.5,6.7, 
25-may-1964,0,0.000,0,19.8,0,9.3,8.3, 
26-may-1964,0,0.000,0,21.7,0,10.2,7.9, 
27-may-1964,0,2.100,0,20.0,0,12.5,8.8, 
28-may-1964,0,8.900,0,14.7,0,12.1,11.1, 
29-may-1964,0,2.600,0,18.4,0,8.4,4.3, 
30-may-1964,0,0.100,0,19.5,0,8.8,5.8, 
31-may-1964,0,0.000,0,16.4,0,11.7,10.5, 
01-jun-1964,0,0.000,0,12.7,0,9.4,8.6, 
02-jun-1964,0,0.000,0,12.2,0,5.9,6.0, 
03-jun-1964,0,6.900,0,14.7,0,4.0,1.7, 
04-jun-1964,0,4.100,0,17.7,0,8.5,8.3, 
05-jun-1964,0,0.700,0,15.0,0,10.1,9.3, 
06-jun-1964,0,0.100,0,18.2,0,8.8,4.4, 
07-jun-1964,0,0.300,0,16.6,0,8.8,4.1, 
08-jun-1964,0,2.400,0,16.6,0,7.8,2.8, 
09-jun-1964,0,2.200,0,15.7,0,7.8, , 
10-jun-1964,0,6.400,0,15.0,0,11.1,10.2, 
11-jun-1964,0,8.900,0,14.9,0,9.9,9.4, 
12-jun-1964,0,36.200,0,13.9,0,11.1,10.1, 
13-jun-1964,0,0.700,0,14.3,0,10.1,9.9, 
14-jun-1964,0,1.100,0,13.9,0,6.7,3.7, 
15-jun-1964,0,1.400,0,13.6,0,9.0,7.6, 
16-jun-1964,0,3.900,0,14.3,0,9.7,8.8, 
17-jun-1964,0,0.800,0,16.7,0,10.1,9.3, 
18-jun-1964,0,0.000,0,17.3,0,9.3,6.2, 
19-jun-1964,0,0.000,0,15.6,0,7.9,6.6, 
20-jun-1964,0,0.000,0,15.9,0,5.8,5.0, 
21-jun-1964,0,0.400,0,17.8,0,9.1,7.8, 
22-jun-1964,0,4.500,0,14.8,0,11.7,11.1, 
23-jun-1964,0,0.100,0,15.5,0,9.9,9.9, 
24-jun-1964,0,0.000,0,18.4,0,8.2,4.9, 
25-jun-1964,0,0.000,0,19.8,0,9.8,6.3, 
26-jun-1964,0,3.700,0,15.5,0,10.7,7.2, 
27-jun-1964,0,1.000,0,16.6,0,12.9,11.8, 
28-jun-1964,0,0.000,0,17.3,0,12.3,11.2, 
29-jun-1964,0,0.200,0,17.5,0,8.3,3.6, 
30-jun-1964,0,0.100,0,18.8,0,8.4, , 
01-jul-1964,4,0.000,0,19.1,0,12.2,9.7, 
02-jul-1964,0,0.700,0,16.1,0,11.1,8.1, 
03-jul-1964,4,0.000,0,17.1,0,11.8,9.7, 
04-jul-1964,0,0.200,0,17.2,0,6.6,2.1, 
05-jul-1964,4,0.000,0,16.6,0,5.5,0.9, 
06-jul-1964,0,4.200,0,16.6,0,9.5,6.1, 
07-jul-1964,0,10.300,0,14.7,0,10.8,9.1, 
08-jul-1964,0,0.100,0,15.9,0,9.7,6.6, 
09-jul-1964,4,0.000,0,15.7,0,8.8,5.0, 
10-jul-1964,0,17.500,0,14.7,0,7.2,3.8, 
11-jul-1964,0,0.100,0,16.5,0,11.5,9.9, 
12-jul-1964,4,0.000,0,15.1,0,8.5,4.1, 
13-jul-1964,0,13.000,0,16.5,0,10.0,5.4, 
14-jul-1964,0,1.700,0,17.3,0,12.7,11.7, 
15-jul-1964,0,0.600,0,16.8,0,11.9,8.4, 
16-jul-1964,0,5.000,0,19.5,0,10.2,3.6, 
17-jul-1964,0,0.400,0,19.8,0,14.7,12.2, 
18-jul-1964,4,0.000,0,19.9,0,13.3,11.5, 
19-jul-1964,0,9.700,0,17.6,0,12.5,9.8, 
20-jul-1964,0,6.500,0,16.8,0,12.7,11.1, 
21-jul-1964,0,0.200,0,15.8,0,13.1,11.3, 
22-jul-1964,4,0.000,0,17.3,0,11.3,8.2, 
23-jul-1964,0,0.300,0,17.7,0,11.6,8.6, 
24-jul-1964,0,2.200,0,17.7,0,13.7,10.6, 
25-jul-1964,0,0.100,0,16.8,0,12.9,10.0, 
26-jul-1964,4,0.000,0,16.1,0,8.1,2.6, 
27-jul-1964,0,0.100,0,16.5,0,12.4,9.8, 
28-jul-1964,0,1.900,0,17.1,0,12.2,8.5, 
29-jul-1964,0,0.500,0,18.0,0,13.5,11.3, 
30-jul-1964,0,0.400,0,17.3,0,12.7,11.0, 
31-jul-1964,0,0.600,0,16.5,0,11.9,9.1, 
01-aug-1964,0,0.100,0,15.8,0,13.3,10.8, 
02-aug-1964,0,0.000,0,16.3,0,13.8,11.7, 
03-aug-1964,0,0.000,0,19.7,0,12.2,7.5, 
04-aug-1964,0,3.200,0,21.3,0,12.5,10.2, 
05-aug-1964,0,3.100,0,15.6,0,14.1,12.1, 
06-aug-1964,0,4.800,0,16.0,0,10.5,7.2, 
07-aug-1964,0,1.600,0,16.3,0,10.5,7.7, 
08-aug-1964,0,0.100,0,17.1,0,10.2,7.1, 
09-aug-1964,0,0.100,0,17.6,0,8.3,2.8, 
10-aug-1964,0,1.100,0,16.2,0,11.7,9.2, 
11-aug-1964,0,0.100,0,18.8,0,12.3,10.5, 
12-aug-1964,0,0.000,0,21.0,0,12.7,9.7, 
13-aug-1964,0,0.000,0,20.5,0,13.6,8.5, 
14-aug-1964,0,0.000,0,20.5,0,11.5,5.7, 
15-aug-1964,0,0.800,0,17.6,0,11.7,6.0, 
16-aug-1964,0,46.500,0,15.8,0,12.8,8.4, 
17-aug-1964,0,4.900,0,21.2,0,13.0,10.8, 
18-aug-1964,0,0.200,0,13.3,0,12.2,9.2, 
19-aug-1964,0,0.100,0,14.9,0,6.7,1.9, 
20-aug-1964,0,4.000,0,14.9,0,5.1,-1.7, 
21-aug-1964,0,3.500,0,15.1,0,4.0,-1.9, 
22-aug-1964,0,0.800,0,17.1,0,9.3,5.2, 
23-aug-1964,0,5.400,0,16.5,0,12.8,9.6, 
24-aug-1964,0,7.400,0,16.8,0,13.3,11.0, 
25-aug-1964,0,13.600,0,17.1,0,12.2,10.2, 
26-aug-1964,0,16.600,0,16.6,0,13.7,8.3, 
27-aug-1964,0,1.100,0,19.0,0,12.5,8.2, 
28-aug-1964,0,2.100,0,15.5,0,7.8,1.3, 
29-aug-1964,0,0.100,0,16.5,0,6.9,0.1, 
30-aug-1964,0,0.000,0,17.8,0,5.5,-1.3, 
31-aug-1964,0,0.000,0,19.3,0,6.7,-0.4, 
01-sep-1964,0,3.400,0,18.2,0,9.8,5.2, 
02-sep-1964,0,0.900,0,20.0,0,12.5,8.8, 
03-sep-1964,0,0.200,0,19.0,0,14.1,11.2, 
04-sep-1964,0,3.500,0,19.3,0,12.9,10.4, 
05-sep-1964,0,3.000,0,18.1,0,11.5,5.3, 
06-sep-1964,0,1.500,0,17.3,0,11.9,6.9, 
07-sep-1964,0,0.700,0,17.1,0,13.6,9.6, 
08-sep-1964,0,0.600,0,16.2,0,12.3,9.0, 
09-sep-1964,0,2.500,0,16.5,0,13.9,11.1, 
10-sep-1964,0,0.800,0,18.1,0,14.1,11.0, 
11-sep-1964,4,0.000,0,17.2,0,12.5,8.3, 
12-sep-1964,0,1.000,0,18.8,0,6.5,0.3, 
13-sep-1964,0,19.100,0,16.2,0,11.7,7.3, 
14-sep-1964,0,13.400,0,15.6,0,11.5,8.1, 
15-sep-1964,0,18.000,0,15.0,0,8.5,-0.1, 
16-sep-1964,0,0.300,0,15.4,0,8.9,5.6, 
17-sep-1964,0,1.100,0,14.1,0,6.1,-1.3, 
18-sep-1964,0,1.100,0,16.3,0,7.3,0.8, 
19-sep-1964,0,1.300,0,14.3,0,8.4,1.2, 
20-sep-1964,4,0.000,0,14.6,0,6.3,0.6, 
21-sep-1964,0,23.200,2,15.5,0,4.7,-2.0, 
22-sep-1964,0,8.000,0,15.6,0,10.8,8.8, 
23-sep-1964,0,0.600,0,17.7,0,13.3,10.0, 
24-sep-1964,0,4.000,0,17.1,0,11.5,7.2, 
25-sep-1964,0,15.700,0,15.7,0,10.7,6.9, 
26-sep-1964,0,0.500,0,14.7,0,8.7,4.3, 
27-sep-1964,0,0.100,0,15.6,0,8.8,1.8, 
28-sep-1964,4,0.000,0,16.2,0,8.8,2.2, 
29-sep-1964,4,0.000,0,17.4,0,12.7,9.1, 
30-sep-1964,4,0.000,0,16.5,0,8.4,3.0, 
01-oct-1964,4,0.000,0,15.9,0,9.2,3.4, 
02-oct-1964,4,0.000,0,15.1,0,6.6,-0.7, 
03-oct-1964,4,0.000,0,17.0,0,3.8,-1.7, 
04-oct-1964,0,21.000,0,17.1,0,10.2,5.8, 
05-oct-1964,0,4.600,0,13.8,0,10.1,7.7, 
06-oct-1964,0,31.500,0,13.6,0,6.1,-0.7, 
07-oct-1964,0,6.500,0,12.7,0,8.3,4.5, 
08-oct-1964,0,14.400,2,12.0,0,6.6,1.6, 
09-oct-1964,0,12.100,0,9.7,0,3.6,-2.5, 
10-oct-1964,0,1.000,0,9.8,0,2.1,-3.4, 
11-oct-1964,0,0.300,0,11.3,0,1.9,-5.2, 
12-oct-1964,0,1.800,0,10.0,0,2.1,-4.8, 
13-oct-1964,0,0.600,0,11.7,0,2.1,-4.1, 
14-oct-1964,0,3.200,0,12.0,0,5.0,-2.9, 
15-oct-1964,0,1.800,0,10.6,0,6.6,1.2, 
16-oct-1964,0,0.500,0,12.7,0,6.2,-2.2, 
17-oct-1964,0,3.000,0,13.8,0,3.6,-3.6, 
18-oct-1964,0,0.900,0,14.1,0,8.0,5.7, 
19-oct-1964,0,0.100,0,15.0,0,10.1,5.0, 
20-oct-1964,0,5.900,0,12.8,0,8.0,1.8, 
21-oct-1964,0,0.100,0,11.7,0,10.2,6.5, 
22-oct-1964,0,4.900,0,11.0,0,5.2,-0.3, 
23-oct-1964,0,1.700,0,9.3,0,4.7,0.0, 
24-oct-1964,0,0.300,0,11.0,0,3.8,-1.6, 
25-oct-1964,0,6.400,0,12.8,0,5.7,1.6, 
26-oct-1964,0,1.100,0,13.3,0,9.1,6.1, 
27-oct-1964,0,0.400,0,13.3,0,11.0,6.2, 
28-oct-1964,4,0.000,0,12.7,0,10.5,7.9, 
29-oct-1964,0,0.100,0,11.0,0,8.0,4.8, 
30-oct-1964,0,0.200,0,11.8,0,6.2,-1.6, 
31-oct-1964,0,0.300,0,11.0,0,7.6,-0.1, 
01-nov-1964,0,0.000,0,12.5,0,6.7,2.8, 
02-nov-1964,0,0.000,0,10.4,0,5.6,3.2, 
03-nov-1964,0,0.000,0,10.5,0,2.7,-1.3, 
04-nov-1964,0,0.000,0,8.5,0,2.7,-2.2, 
05-nov-1964,0,0.000,0,7.6,0,4.7,1.1, 
06-nov-1964,0,0.000,0,8.6,0,5.1,0.9, 
07-nov-1964,0,0.000,0,7.7,0,1.8,-3.9, 
08-nov-1964,0,0.000,0,9.6,0,1.0,-5.5, 
09-nov-1964,0,0.000,0,10.5,0,1.0,-4.5, 
10-nov-1964,0,4.900,0,11.0,3,-2.2,-7.7, 
11-nov-1964,0,1.900,0,13.0,3,-2.2,-3.3, 
12-nov-1964,0,18.900,2,13.0,0,6.1,1.3, 
13-nov-1964,0,2.800,2,13.0,0,8.5,4.6, 
14-nov-1964,0,4.000,0,10.1,0,6.9,3.0, 
15-nov-1964,0,9.300,0,12.3,0,6.0,1.0, 
16-nov-1964,0,13.800,0,12.6,0,6.2,2.1, 
17-nov-1964,0,6.500,0,13.5,0,6.0,0.1, 
18-nov-1964,0,3.000,0,12.7,0,12.0,8.4, 
19-nov-1964,0,0.100,0,11.7,0,10.1,6.6, 
20-nov-1964,0,0.200,2,12.0,0,10.2,6.3, 
21-nov-1964,0,0.000,0,13.0,0,9.9,7.0, 
22-nov-1964,0,3.400,0,11.7,0,10.2,7.1, 
23-nov-1964,0,1.300,2,12.2,0,6.2,-0.1, 
24-nov-1964,0,1.500,0,12.2,0,7.2,2.5, 
25-nov-1964,0,2.000,0,12.1,0,8.2,0.8, 
26-nov-1964,0,8.200,0,11.6,0,9.0,6.0, 
27-nov-1964,0,5.100,0,7.1,0,2.7,-4.1, 
28-nov-1964,0,5.300,0,6.7,0,1.0,-3.2, 
29-nov-1964,0,5.200,0,9.1,0,1.2,-2.7, 
30-nov-1964,0,3.300,0,7.9,0,1.8,-3.2, 
01-dec-1964,0,0.300,0,8.9,0,3.8,-2.2, 
02-dec-1964,0,0.600,0,10.2,0,4.0,-3.0, 
03-dec-1964,0,0.100,0,8.8,0,5.6,-2.5, 
04-dec-1964,0,2.600,2,11.0,0,5.0,0.8, 
05-dec-1964,0,4.100,0,11.1,0,5.0,1.5, 
06-dec-1964,0,4.700,0,11.2,0,8.2,5.2, 
07-dec-1964,0,9.200,0,11.2,0,4.1,-3.5, 
08-dec-1964,0,14.100,0,12.2,0,3.8,-1.1, 
09-dec-1964,0,4.800,0,7.8,0,5.0,-0.1, 
10-dec-1964,0,1.500,0,7.5,0,2.7,-3.3, 
11-dec-1964,0,19.700,0,12.1,0,0.5,-6.0, 
12-dec-1964,0,16.000,0,10.1,0,4.9,0.9, 
13-dec-1964,0,1.900,0,7.1,0,2.7,-1.0, 
14-dec-1964,0,0.600,0,6.0,1,-0.7,-8.2, 
15-dec-1964,0,7.700,0,4.8,0,0.5,-6.7, 
16-dec-1964,0,0.600,0,6.7,0,2.2,-3.3, 
17-dec-1964,0,0.100,0,6.4,0,4.3,-0.7, 
18-dec-1964,0,0.000,0,7.1,0,0.2,-5.0, 
19-dec-1964,0,0.800,0,8.0,0,0.0,-5.4, 
20-dec-1964,0,0.100,0,6.7,0,3.8,-2.3, 
21-dec-1964,0,0.000,0,6.7,0,3.3,-3.3, 
22-dec-1964,0,0.000,0,4.5,0,1.1,-3.0, 
23-dec-1964,0,0.400,0,4.7,0,1.6,-2.4, 
24-dec-1964,0,0.400,0,6.5,0,1.9,-4.2, 
25-dec-1964,0,3.600,0,6.5,1,-0.1,-5.9, 
26-dec-1964,0,3.500,0,6.2,1,-0.3,-5.7, 
27-dec-1964,0,0.100,0,4.7,0,1.2,-3.3, 
28-dec-1964,0,4.700,0,8.4,1,-5.7,-9.7, 
29-dec-1964,0,12.800,0,9.1,1,-2.1,-2.7, 
30-dec-1964,0,4.200,0,5.9,0,1.0,-2.2, 
31-dec-1964,0,2.700,0,7.5,0,1.3,-2.5, 
01-jan-1965,0,0.400,0,6.4,0,0.1,-6.0, 
02-jan-1965,0,4.000,0,4.7,1,-0.6,-6.7, 
03-jan-1965,0,0.100,0,3.6,1,-0.2,-5.8, 
04-jan-1965,0,0.000,0,7.2,1,-2.7,-10.0, 
05-jan-1965,0,1.300,0,8.3,1,-1.0,-6.1, 
06-jan-1965,0,5.000,0,10.4,0,6.5,2.5, 
07-jan-1965,0,5.200,0,10.6,0,7.5,4.4, 
08-jan-1965,0,5.700,0,9.0,0,5.1,-0.2, 
09-jan-1965,0,9.100,0,10.0,0,3.1,-2.3, 
10-jan-1965,0,4.000,2,10.0,0,7.7,4.7, 
11-jan-1965,0,6.800,0,9.2,0,6.5,2.0, 
12-jan-1965,0,17.600,2,8.0,0,1.1,-3.6, 
13-jan-1965,0,7.100,0,10.1,0,1.6,-3.6, 
14-jan-1965,0,7.300,0,6.0,0,1.6,-2.8, 
15-jan-1965,0,17.400,0,10.0,0,1.1,-2.8, 
16-jan-1965,0,6.400,0,10.4,0,2.0,-1.9, 
17-jan-1965,0,14.200,0,6.6,0,1.0,-1.9, 
18-jan-1965,0,4.400,0,3.2,0,0.0,-5.5, 
19-jan-1965,0,17.500,0,2.4,1,-0.7,-6.1, 
20-jan-1965,0,0.100,0,2.8,1,-0.7,-2.7, 
21-jan-1965,0,6.800,0,5.2,1,-1.6,-8.2, 
22-jan-1965,0,2.700,0,7.3,0,1.3,-3.5, 
23-jan-1965,0,10.500,0,9.1,0,2.3,-3.2, 
24-jan-1965,0,0.200,0,7.0,0,3.3,-3.8, 
25-jan-1965,0,0.100,0,3.0,1,-0.5,-5.1, 
26-jan-1965,0,0.000,0,4.7,1,-0.2,-3.1, 
27-jan-1965,0,0.000,0,2.5,0,0.0,-4.3, 
28-jan-1965,0,0.000,0,1.8,1,-2.5,-7.1, 
29-jan-1965,0,0.000,0,2.7,1,-2.6,-7.2, 
30-jan-1965,0,0.000,0,3.1,1,-2.2,-6.6, 
31-jan-1965,0,0.000,0,3.8,1,-1.9,-6.1, 
01-feb-1965,0,0.000,0,5.7,1,-2.2,-6.2, 
02-feb-1965,0,0.000,0,4.2,1,-1.0,-5.2, 
03-feb-1965,0,0.000,0,2.8,1,-2.8,-9.8, 
04-feb-1965,0,0.200,0,1.3,1,-2.8,-6.7, 
05-feb-1965,0,0.000,0,4.0,1,-2.7,-7.8, 
06-feb-1965,0,0.000,0,6.3,1,-0.7,-7.6, 
07-feb-1965,0,0.000,0,5.2,0,3.6,0.1, 
08-feb-1965,0,0.000,0,4.7,0,1.6,-3.7, 
09-feb-1965,0,0.100,0,6.0,0,2.3,-4.2, 
10-feb-1965,0,0.400,0,9.0,0,2.7,-4.4, 
11-feb-1965,0,1.400,0,9.0,0,1.8,-3.9, 
12-feb-1965,0,1.400,0,9.3,0,1.8,-3.7, 
13-feb-1965,0,0.100,0,6.0,0,2.2,-4.5, 
14-feb-1965,0,0.000,0,6.0,0,1.4,0.5, 
15-feb-1965,0,1.500,0,4.7,0,2.1,-1.5, 
16-feb-1965,0,0.100,0,6.6,0,3.3,-1.8, 
17-feb-1965,0,0.000,0,5.3,0,3.3,-0.6, 